User: anonymous   Login
Location: Haliburton Scout Reserve
(45.0900°N, 78.3200°W)
Time: 12:05:14
(UTC-04:00)
Language:

IDEFIX/ARIANE 42P - Orbit

View from above orbital plane
View from above orbital plane
View from above satellite
View from above satellite

Ground track
Ground track

The orbit data is extracted from the following two-line orbital elements,

1 27422U 02021B   15141.67443717  .00000149  00000-0  74806-4 0  9996
2 27422 098.2587 172.3090 0011506 327.1782 032.8685 14.29183069678470
Epoch (UTC): 21 May 2015 16:11:11
Eccentricity: 0.0011506
inclination: 98.2587°
perigee height: 786 km
apogee height: 803 km
right ascension of ascending node: 172.3090°
argument of perigee: 327.1782°
revolutions per day: 14.29183069
mean anomaly at epoch: 32.8685°
orbit number at epoch: 67847

The dashed part of the orbit path shows where the satellite is in the earth's shadow,  

DLR